Time,TemperatureF,DewpointF,PressureIn,WindDirection,WindDirectionDegrees,WindSpeedMPH,WindSpeedGustMPH,Humidity,HourlyPrecipIn,Conditions,Clouds,dailyrainin,SoftwareType,DateUTC
2013-04-03 00:00:00,26.4,14.4,30.12,NW,315,0.0,0.0,60,0.00,,,0.00,WUHU21623XXSP,2013-04-03 04:00:00,
2013-04-03 00:05:00,26.4,14.4,30.11,NW,315,0.0,0.0,60,0.00,,,0.00,WUHU21623XXSP,2013-04-03 04:05:00,
2013-04-03 00:10:00,26.2,14.4,30.12,NW,315,0.0,0.0,61,0.00,,,0.00,WUHU21623XXSP,2013-04-03 04:10:00,
2013-04-03 00:15:00,26.2,14.6,30.12,NW,315,0.0,0.0,61,0.00,,,0.00,WUHU21623XXSP,2013-04-03 04:15:00,
2013-04-03 00:20:00,26.1,14.4,30.12,NW,315,0.0,0.0,61,0.00,,,0.00,WUHU21623XXSP,2013-04-03 04:20:00,
2013-04-03 00:25:00,25.9,14.4,30.11,NW,315,0.0,0.0,61,0.00,,,0.00,WUHU21623XXSP,2013-04-03 04:25:00,
2013-04-03 00:30:00,25.9,14.6,30.11,NW,315,0.0,0.0,62,0.00,,,0.00,WUHU21623XXSP,2013-04-03 04:30:00,
2013-04-03 00:35:00,25.9,14.6,30.11,NW,315,0.0,0.0,62,0.00,,,0.00,WUHU21623XXSP,2013-04-03 04:35:00,
2013-04-03 00:40:00,25.7,14.4,30.12,NW,315,0.0,0.0,62,0.00,,,0.00,WUHU21623XXSP,2013-04-03 04:40:00,
2013-04-03 00:45:00,25.5,14.3,30.11,NW,315,0.0,0.0,62,0.00,,,0.00,WUHU21623XXSP,2013-04-03 04:45:00,
2013-04-03 00:50:00,25.5,14.3,30.12,NW,315,0.0,0.0,63,0.00,,,0.00,WUHU21623XXSP,2013-04-03 04:50:00,
2013-04-03 00:55:00,25.5,14.6,30.11,NW,315,0.0,0.0,63,0.00,,,0.00,WUHU21623XXSP,2013-04-03 04:55:00,
2013-04-03 01:00:00,25.3,14.4,30.11,NW,315,0.0,0.0,63,0.00,,,0.00,WUHU21623XXSP,2013-04-03 05:00:00,
2013-04-03 01:05:00,25.3,14.4,30.11,NW,315,0.0,0.0,63,0.00,,,0.00,WUHU21623XXSP,2013-04-03 05:05:00,
2013-04-03 01:10:00,25.2,14.3,30.11,NW,315,0.0,0.0,63,0.00,,,0.00,WUHU21623XXSP,2013-04-03 05:10:00,
2013-04-03 01:15:00,25.0,14.3,30.11,NW,315,0.0,0.0,63,0.00,,,0.00,WUHU21623XXSP,2013-04-03 05:15:00,
2013-04-03 01:20:00,25.0,14.1,30.11,NW,315,0.0,0.0,63,0.00,,,0.00,WUHU21623XXSP,2013-04-03 05:20:00,
2013-04-03 01:25:00,25.0,14.4,30.11,NW,315,0.0,0.0,64,0.00,,,0.00,WUHU21623XXSP,2013-04-03 05:25:00,
2013-04-03 01:30:00,25.0,14.4,30.11,NW,315,0.0,0.0,64,0.00,,,0.00,WUHU21623XXSP,2013-04-03 05:30:00,
2013-04-03 01:35:00,25.0,14.8,30.11,NW,315,0.0,0.0,65,0.00,,,0.00,WUHU21623XXSP,2013-04-03 05:35:00,
2013-04-03 01:40:00,24.6,14.4,30.11,NW,315,0.0,0.0,65,0.00,,,0.00,WUHU21623XXSP,2013-04-03 05:40:00,
2013-04-03 01:45:00,24.6,14.4,30.11,NW,315,0.0,0.0,65,0.00,,,0.00,WUHU21623XXSP,2013-04-03 05:45:00,
2013-04-03 01:50:00,24.6,14.4,30.11,NW,315,0.0,0.0,65,0.00,,,0.00,WUHU21623XXSP,2013-04-03 05:50:00,
2013-04-03 01:55:00,24.6,14.4,30.11,NW,315,0.0,0.0,65,0.00,,,0.00,WUHU21623XXSP,2013-04-03 05:55:00,
2013-04-03 02:00:00,24.6,14.4,30.11,NW,315,0.0,0.0,65,0.00,,,0.00,WUHU21623XXSP,2013-04-03 06:00:00,
2013-04-03 02:05:00,24.6,14.8,30.12,NW,315,0.0,0.0,66,0.00,,,0.00,WUHU21623XXSP,2013-04-03 06:05:00,
2013-04-03 02:10:00,24.4,14.6,30.11,NW,315,0.0,0.0,66,0.00,,,0.00,WUHU21623XXSP,2013-04-03 06:10:00,
2013-04-03 02:15:00,24.4,14.6,30.11,NW,315,0.0,0.0,66,0.00,,,0.00,WUHU21623XXSP,2013-04-03 06:15:00,
2013-04-03 02:20:00,24.4,14.6,30.11,NW,315,0.0,0.0,66,0.00,,,0.00,WUHU21623XXSP,2013-04-03 06:20:00,
2013-04-03 02:25:00,24.3,14.8,30.11,NW,315,0.0,0.0,67,0.00,,,0.00,WUHU21623XXSP,2013-04-03 06:25:00,
2013-04-03 02:30:00,24.1,14.6,30.11,NW,315,0.0,0.0,67,0.00,,,0.00,WUHU21623XXSP,2013-04-03 06:30:00,
2013-04-03 02:35:00,24.1,14.6,30.11,NW,315,0.0,0.0,67,0.00,,,0.00,WUHU21623XXSP,2013-04-03 06:35:00,
2013-04-03 02:40:00,23.9,14.5,30.11,NNW,337,0.0,0.0,67,0.00,,,0.00,WUHU21623XXSP,2013-04-03 06:40:00,
2013-04-03 02:45:00,23.7,14.3,30.11,NNW,337,0.0,1.3,67,0.00,,,0.00,WUHU21623XXSP,2013-04-03 06:45:00,
2013-04-03 02:50:00,23.7,14.3,30.12,NNW,337,0.0,1.3,67,0.00,,,0.00,WUHU21623XXSP,2013-04-03 06:50:00,
2013-04-03 02:55:00,23.5,14.5,30.12,NNW,337,0.0,0.0,68,0.00,,,0.00,WUHU21623XXSP,2013-04-03 06:55:00,
2013-04-03 03:00:00,23.5,14.5,30.12,NNW,337,0.0,0.0,68,0.00,,,0.00,WUHU21623XXSP,2013-04-03 07:00:00,
2013-04-03 03:05:00,23.5,14.5,30.12,WSW,247,0.0,0.0,68,0.00,,,0.00,WUHU21623XXSP,2013-04-03 07:05:00,
2013-04-03 03:10:00,23.5,14.5,30.12,NW,315,0.0,0.0,68,0.00,,,0.00,WUHU21623XXSP,2013-04-03 07:10:00,
2013-04-03 03:15:00,23.4,14.3,30.12,NW,315,0.0,0.0,68,0.00,,,0.00,WUHU21623XXSP,2013-04-03 07:15:00,
2013-04-03 03:20:00,23.4,14.7,30.12,NW,315,0.0,0.0,69,0.00,,,0.00,WUHU21623XXSP,2013-04-03 07:20:00,
2013-04-03 03:25:00,23.2,14.5,30.12,NW,315,0.0,0.0,69,0.00,,,0.00,WUHU21623XXSP,2013-04-03 07:25:00,
2013-04-03 03:30:00,23.0,14.4,30.12,NW,315,0.0,0.0,69,0.00,,,0.00,WUHU21623XXSP,2013-04-03 07:30:00,
2013-04-03 03:35:00,23.0,14.4,30.12,NW,315,0.0,0.0,69,0.00,,,0.00,WUHU21623XXSP,2013-04-03 07:35:00,
2013-04-03 03:40:00,23.0,14.4,30.12,NW,315,0.0,0.0,69,0.00,,,0.00,WUHU21623XXSP,2013-04-03 07:40:00,
2013-04-03 03:45:00,22.8,14.2,30.12,NW,315,0.0,0.0,69,0.00,,,0.00,WUHU21623XXSP,2013-04-03 07:45:00,
2013-04-03 03:50:00,22.8,14.5,30.13,NW,315,0.0,0.0,70,0.00,,,0.00,WUHU21623XXSP,2013-04-03 07:50:00,
2013-04-03 03:55:00,22.8,14.5,30.13,NW,315,0.0,0.0,70,0.00,,,0.00,WUHU21623XXSP,2013-04-03 07:55:00,
2013-04-03 04:00:00,22.8,14.5,30.13,NW,315,0.0,0.0,70,0.00,,,0.00,WUHU21623XXSP,2013-04-03 08:00:00,
2013-04-03 04:05:00,22.6,14.4,30.13,NW,315,0.0,0.0,70,0.00,,,0.00,WUHU21623XXSP,2013-04-03 08:05:00,
2013-04-03 04:10:00,22.6,14.4,30.13,NW,315,0.0,0.0,70,0.00,,,0.00,WUHU21623XXSP,2013-04-03 08:10:00,
2013-04-03 04:15:00,22.5,14.4,30.13,NW,315,0.0,0.0,70,0.00,,,0.00,WUHU21623XXSP,2013-04-03 08:15:00,
2013-04-03 04:20:00,22.5,14.2,30.13,NW,315,0.0,0.0,70,0.00,,,0.00,WUHU21623XXSP,2013-04-03 08:20:00,
2013-04-03 04:25:00,22.3,14.2,30.14,NW,315,0.0,0.0,70,0.00,,,0.00,WUHU21623XXSP,2013-04-03 08:25:00,
2013-04-03 04:30:00,22.3,14.3,30.14,NW,315,0.0,0.0,71,0.00,,,0.00,WUHU21623XXSP,2013-04-03 08:30:00,
2013-04-03 04:35:00,22.1,14.1,30.14,NW,315,0.0,0.0,71,0.00,,,0.00,WUHU21623XXSP,2013-04-03 08:35:00,
2013-04-03 04:40:00,22.3,14.3,30.13,NW,315,0.0,0.0,71,0.00,,,0.00,WUHU21623XXSP,2013-04-03 08:40:00,
2013-04-03 04:45:00,22.1,14.1,30.14,NW,315,0.0,0.0,71,0.00,,,0.00,WUHU21623XXSP,2013-04-03 08:45:00,
2013-04-03 04:50:00,22.1,14.1,30.14,NW,315,0.0,0.0,71,0.00,,,0.00,WUHU21623XXSP,2013-04-03 08:50:00,
2013-04-03 04:55:00,21.9,13.9,30.14,NW,315,0.0,0.0,71,0.00,,,0.00,WUHU21623XXSP,2013-04-03 08:55:00,
2013-04-03 05:00:00,21.9,14.3,30.14,NW,315,0.9,0.9,72,0.00,,,0.00,WUHU21623XXSP,2013-04-03 09:00:00,
2013-04-03 05:05:00,21.9,14.3,30.14,NW,315,0.9,0.9,72,0.00,,,0.00,WUHU21623XXSP,2013-04-03 09:05:00,
2013-04-03 05:10:00,21.7,14.1,30.14,NW,315,0.0,0.9,72,0.00,,,0.00,WUHU21623XXSP,2013-04-03 09:10:00,
2013-04-03 05:15:00,21.6,14.1,30.15,NW,315,0.0,0.0,72,0.00,,,0.00,WUHU21623XXSP,2013-04-03 09:15:00,
2013-04-03 05:20:00,21.6,13.9,30.15,NW,315,0.0,0.0,72,0.00,,,0.00,WUHU21623XXSP,2013-04-03 09:20:00,
2013-04-03 05:25:00,21.6,13.9,30.16,NW,315,0.0,0.0,72,0.00,,,0.00,WUHU21623XXSP,2013-04-03 09:25:00,
2013-04-03 05:30:00,21.4,13.7,30.16,NNE,22,0.0,0.0,72,0.00,,,0.00,WUHU21623XXSP,2013-04-03 09:30:00,
2013-04-03 05:35:00,21.6,13.7,30.16,NNE,22,0.0,0.0,72,0.00,,,0.00,WUHU21623XXSP,2013-04-03 09:35:00,
2013-04-03 05:40:00,21.4,14.0,30.16,WSW,247,0.0,0.0,73,0.00,,,0.00,WUHU21623XXSP,2013-04-03 09:40:00,
2013-04-03 05:45:00,21.4,14.0,30.16,WNW,292,0.0,0.0,73,0.00,,,0.00,WUHU21623XXSP,2013-04-03 09:45:00,
2013-04-03 05:50:00,21.4,14.0,30.16,WNW,292,0.0,0.0,73,0.00,,,0.00,WUHU21623XXSP,2013-04-03 09:50:00,
2013-04-03 05:55:00,21.4,14.0,30.16,West,270,0.0,0.0,73,0.00,,,0.00,WUHU21623XXSP,2013-04-03 09:55:00,
2013-04-03 06:00:00,21.6,14.2,30.17,WSW,247,0.0,0.0,73,0.00,,,0.00,WUHU21623XXSP,2013-04-03 10:00:00,
2013-04-03 06:05:00,21.6,14.2,30.17,WSW,247,0.0,0.0,73,0.00,,,0.00,WUHU21623XXSP,2013-04-03 10:05:00,
2013-04-03 06:10:00,21.6,14.2,30.17,WSW,247,0.0,0.0,73,0.00,,,0.00,WUHU21623XXSP,2013-04-03 10:10:00,
2013-04-03 06:15:00,21.6,14.2,30.17,WSW,247,0.0,0.0,73,0.00,,,0.00,WUHU21623XXSP,2013-04-03 10:15:00,
2013-04-03 06:20:00,21.6,14.5,30.17,WSW,247,0.0,0.0,74,0.00,,,0.00,WUHU21623XXSP,2013-04-03 10:20:00,
2013-04-03 06:25:00,21.7,14.5,30.17,WSW,247,0.0,0.0,74,0.00,,,0.00,WUHU21623XXSP,2013-04-03 10:25:00,
2013-04-03 06:30:00,21.7,14.7,30.18,West,270,0.0,0.0,74,0.00,,,0.00,WUHU21623XXSP,2013-04-03 10:30:00,
2013-04-03 06:35:00,21.6,14.5,30.18,WNW,292,0.0,0.0,74,0.00,,,0.00,WUHU21623XXSP,2013-04-03 10:35:00,
2013-04-03 06:40:00,21.6,14.5,30.18,WNW,292,0.0,0.0,74,0.00,,,0.00,WUHU21623XXSP,2013-04-03 10:40:00,
2013-04-03 06:45:00,21.4,14.5,30.19,WNW,292,0.0,0.0,74,0.00,,,0.00,WUHU21623XXSP,2013-04-03 10:45:00,
2013-04-03 06:50:00,21.4,14.3,30.19,WNW,292,0.0,0.0,74,0.00,,,0.00,WUHU21623XXSP,2013-04-03 10:50:00,
2013-04-03 06:55:00,21.4,14.3,30.19,WNW,292,0.0,0.0,74,0.00,,,0.00,WUHU21623XXSP,2013-04-03 10:55:00,
2013-04-03 07:00:00,21.4,14.6,30.19,WNW,292,0.0,0.0,75,0.00,,,0.00,WUHU21623XXSP,2013-04-03 11:00:00,
2013-04-03 07:05:00,21.4,14.6,30.19,WNW,292,0.0,0.0,75,0.00,,,0.00,WUHU21623XXSP,2013-04-03 11:05:00,
2013-04-03 07:10:00,21.4,14.6,30.20,WNW,292,0.0,0.0,75,0.00,,,0.00,WUHU21623XXSP,2013-04-03 11:10:00,
2013-04-03 07:15:00,21.6,14.8,30.20,NW,315,0.0,0.0,75,0.00,,,0.00,WUHU21623XXSP,2013-04-03 11:15:00,
2013-04-03 07:20:00,21.7,15.0,30.21,NW,315,0.0,0.0,75,0.00,,,0.00,WUHU21623XXSP,2013-04-03 11:20:00,
2013-04-03 07:25:00,21.7,15.0,30.21,NW,315,0.0,0.0,75,0.00,,,0.00,WUHU21623XXSP,2013-04-03 11:25:00,
2013-04-03 07:30:00,21.9,15.2,30.21,NW,315,0.0,0.0,75,0.00,,,0.00,WUHU21623XXSP,2013-04-03 11:30:00,
2013-04-03 07:35:00,22.1,15.3,30.21,NW,315,0.0,0.0,75,0.00,,,0.00,WUHU21623XXSP,2013-04-03 11:35:00,
2013-04-03 07:40:00,22.3,15.5,30.21,NW,315,0.0,0.0,75,0.00,,,0.00,WUHU21623XXSP,2013-04-03 11:40:00,
2013-04-03 07:45:00,22.6,15.9,30.21,NW,315,0.0,0.0,75,0.00,,,0.00,WUHU21623XXSP,2013-04-03 11:45:00,
2013-04-03 07:50:00,22.8,16.1,30.20,NW,315,0.0,0.0,75,0.00,,,0.00,WUHU21623XXSP,2013-04-03 11:50:00,
2013-04-03 07:55:00,23.0,16.3,30.21,NW,315,0.0,0.0,75,0.00,,,0.00,WUHU21623XXSP,2013-04-03 11:55:00,
2013-04-03 08:00:00,23.5,16.8,30.21,NW,315,0.9,0.9,75,0.00,,,0.00,WUHU21623XXSP,2013-04-03 12:00:00,
2013-04-03 08:05:00,23.9,17.1,30.22,NNW,337,2.0,2.0,75,0.00,,,0.00,WUHU21623XXSP,2013-04-03 12:05:00,
2013-04-03 08:10:00,24.4,17.6,30.22,NW,315,1.3,2.0,75,0.00,,,0.00,WUHU21623XXSP,2013-04-03 12:10:00,
2013-04-03 08:15:00,25.5,18.6,30.22,NW,315,2.9,4.9,75,0.00,,,0.00,WUHU21623XXSP,2013-04-03 12:15:00,
2013-04-03 08:20:00,26.2,19.0,30.22,NW,315,2.9,4.9,74,0.00,,,0.00,WUHU21623XXSP,2013-04-03 12:20:00,
2013-04-03 08:25:00,26.6,19.2,30.22,NNW,337,5.6,5.6,73,0.00,,,0.00,WUHU21623XXSP,2013-04-03 12:25:00,
2013-04-03 08:30:00,27.3,19.5,30.22,NNW,337,4.7,5.6,72,0.00,,,0.00,WUHU21623XXSP,2013-04-03 12:30:00,
2013-04-03 08:35:00,27.7,19.5,30.22,NW,315,4.3,4.7,71,0.00,,,0.00,WUHU21623XXSP,2013-04-03 12:35:00,
2013-04-03 08:40:00,28.0,19.6,30.22,NNW,337,2.9,4.7,70,0.00,,,0.00,WUHU21623XXSP,2013-04-03 12:40:00,
2013-04-03 08:45:00,28.6,19.4,30.22,North,0,4.0,4.0,69,0.00,,,0.00,WUHU21623XXSP,2013-04-03 12:45:00,
2013-04-03 08:50:00,28.8,19.2,30.22,NNW,337,2.5,4.0,67,0.00,,,0.00,WUHU21623XXSP,2013-04-03 12:50:00,
2013-04-03 08:55:00,28.9,18.6,30.22,NW,315,5.8,5.8,65,0.00,,,0.00,WUHU21623XXSP,2013-04-03 12:55:00,
2013-04-03 09:00:00,29.3,18.6,30.22,NW,315,4.7,5.8,64,0.00,,,0.00,WUHU21623XXSP,2013-04-03 13:00:00,
2013-04-03 09:05:00,29.5,18.4,30.22,NW,315,8.7,8.7,63,0.00,,,0.00,WUHU21623XXSP,2013-04-03 13:05:00,
2013-04-03 09:10:00,29.7,17.8,30.22,NW,315,5.1,8.7,61,0.00,,,0.00,WUHU21623XXSP,2013-04-03 13:10:00,
2013-04-03 09:15:00,30.0,17.6,30.22,NW,315,8.9,8.9,60,0.00,,,0.00,WUHU21623XXSP,2013-04-03 13:15:00,
2013-04-03 09:20:00,30.0,17.4,30.22,NNW,337,14.5,14.5,59,0.00,,,0.00,WUHU21623XXSP,2013-04-03 13:20:00,
2013-04-03 09:25:00,30.2,17.1,30.22,NW,315,6.7,14.5,58,0.00,,,0.00,WUHU21623XXSP,2013-04-03 13:25:00,
2013-04-03 09:30:00,30.7,17.7,30.22,SSW,202,2.9,6.7,58,0.00,,,0.00,WUHU21623XXSP,2013-04-03 13:30:00,
2013-04-03 09:35:00,30.7,17.2,30.22,NNW,337,4.9,6.7,57,0.00,,,0.00,WUHU21623XXSP,2013-04-03 13:35:00,
2013-04-03 09:40:00,30.9,17.0,30.22,WNW,292,1.1,6.7,56,0.00,,,0.00,WUHU21623XXSP,2013-04-03 13:40:00,
2013-04-03 09:45:00,31.1,16.3,30.23,NNW,337,4.5,6.3,54,0.00,,,0.00,WUHU21623XXSP,2013-04-03 13:45:00,
2013-04-03 09:50:00,31.3,16.5,30.23,North,0,4.7,6.3,55,0.00,,,0.00,WUHU21623XXSP,2013-04-03 13:50:00,
2013-04-03 09:55:00,31.3,16.9,30.23,NW,315,4.5,7.2,55,0.00,,,0.00,WUHU21623XXSP,2013-04-03 13:55:00,
2013-04-03 10:00:00,31.6,16.4,30.24,NW,315,8.1,8.1,53,0.00,,,0.00,WUHU21623XXSP,2013-04-03 14:00:00,
2013-04-03 10:05:00,31.8,16.6,30.24,WNW,292,2.0,8.1,53,0.00,,,0.00,WUHU21623XXSP,2013-04-03 14:05:00,
2013-04-03 10:10:00,31.8,16.1,30.24,NW,315,3.6,4.5,52,0.00,,,0.00,WUHU21623XXSP,2013-04-03 14:10:00,
2013-04-03 10:15:00,32.2,16.5,30.24,NW,315,4.7,4.7,52,0.00,,,0.00,WUHU21623XXSP,2013-04-03 14:15:00,
2013-04-03 10:20:00,32.4,16.6,30.24,WNW,292,9.2,9.2,52,0.00,,,0.00,WUHU21623XXSP,2013-04-03 14:20:00,
2013-04-03 10:25:00,32.4,16.2,30.25,NNW,337,4.5,9.2,51,0.00,,,0.00,WUHU21623XXSP,2013-04-03 14:25:00,
2013-04-03 10:30:00,32.7,16.1,30.25,NW,315,5.4,6.9,50,0.00,,,0.00,WUHU21623XXSP,2013-04-03 14:30:00,
2013-04-03 10:35:00,32.9,16.3,30.25,NNW,337,2.0,6.3,50,0.00,,,0.00,WUHU21623XXSP,2013-04-03 14:35:00,
2013-04-03 10:40:00,33.1,16.4,30.25,NW,315,5.1,5.1,50,0.00,,,0.00,WUHU21623XXSP,2013-04-03 14:40:00,
2013-04-03 10:45:00,33.6,16.9,30.25,NW,315,4.3,5.6,50,0.00,,,0.00,WUHU21623XXSP,2013-04-03 14:45:00,
2013-04-03 10:50:00,33.6,16.4,30.25,NNW,337,5.4,5.6,48,0.00,,,0.00,WUHU21623XXSP,2013-04-03 14:50:00,
2013-04-03 10:55:00,33.8,16.1,30.25,WNW,292,6.3,7.2,48,0.00,,,0.00,WUHU21623XXSP,2013-04-03 14:55:00,
2013-04-03 11:00:00,34.0,16.2,30.25,NW,315,3.1,7.2,48,0.00,,,0.00,WUHU21623XXSP,2013-04-03 15:00:00,
2013-04-03 11:05:00,34.0,15.7,30.26,NW,315,9.8,9.8,47,0.00,,,0.00,WUHU21623XXSP,2013-04-03 15:05:00,
2013-04-03 11:10:00,34.2,15.4,30.26,NW,315,12.3,12.3,46,0.00,,,0.00,WUHU21623XXSP,2013-04-03 15:10:00,
2013-04-03 11:15:00,34.3,16.1,30.26,WNW,292,2.9,12.3,47,0.00,,,0.00,WUHU21623XXSP,2013-04-03 15:15:00,
2013-04-03 11:20:00,34.9,16.6,30.26,NW,315,8.9,8.9,47,0.00,,,0.00,WUHU21623XXSP,2013-04-03 15:20:00,
2013-04-03 11:25:00,35.4,17.1,30.26,NNW,337,3.1,8.9,47,0.00,,,0.00,WUHU21623XXSP,2013-04-03 15:25:00,
2013-04-03 11:30:00,35.8,16.9,30.27,NW,315,1.3,6.3,46,0.00,,,0.00,WUHU21623XXSP,2013-04-03 15:30:00,
2013-04-03 11:35:00,36.0,17.1,30.26,NW,315,1.3,3.1,46,0.00,,,0.00,WUHU21623XXSP,2013-04-03 15:35:00,
2013-04-03 11:40:00,36.3,17.4,30.26,NW,315,3.8,6.0,46,0.00,,,0.00,WUHU21623XXSP,2013-04-03 15:40:00,
2013-04-03 11:45:00,36.5,17.1,30.26,NNW,337,3.4,6.3,45,0.00,,,0.00,WUHU21623XXSP,2013-04-03 15:45:00,
2013-04-03 11:50:00,36.5,16.5,30.26,NNW,337,7.8,12.5,44,0.00,,,0.00,WUHU21623XXSP,2013-04-03 15:50:00,
2013-04-03 11:55:00,36.5,16.5,30.26,NNW,337,5.6,12.5,44,0.00,,,0.00,WUHU21623XXSP,2013-04-03 15:55:00,
2013-04-03 12:00:00,36.5,16.0,30.26,WNW,292,4.5,8.1,43,0.00,,,0.00,WUHU21623XXSP,2013-04-03 16:00:00,
2013-04-03 12:05:00,37.0,17.0,30.26,WNW,292,8.7,8.7,44,0.00,,,0.00,WUHU21623XXSP,2013-04-03 16:05:00,
2013-04-03 12:10:00,37.6,16.5,30.26,NW,315,2.5,8.7,42,0.00,,,0.00,WUHU21623XXSP,2013-04-03 16:10:00,
2013-04-03 12:15:00,38.1,17.0,30.26,NNW,337,8.5,8.5,42,0.00,,,0.00,WUHU21623XXSP,2013-04-03 16:15:00,
2013-04-03 12:20:00,38.5,16.8,30.26,WNW,292,2.9,8.5,41,0.00,,,0.00,WUHU21623XXSP,2013-04-03 16:20:00,
2013-04-03 12:25:00,38.8,17.1,30.26,WNW,292,3.8,6.5,41,0.00,,,0.00,WUHU21623XXSP,2013-04-03 16:25:00,
2013-04-03 12:30:00,38.8,17.1,30.25,NW,315,6.0,6.3,41,0.00,,,0.00,WUHU21623XXSP,2013-04-03 16:30:00,
2013-04-03 12:35:00,38.5,16.2,30.26,NW,315,6.9,13.4,40,0.00,,,0.00,WUHU21623XXSP,2013-04-03 16:35:00,
2013-04-03 12:40:00,38.1,16.4,30.26,North,0,5.1,13.4,41,0.00,,,0.00,WUHU21623XXSP,2013-04-03 16:40:00,
2013-04-03 12:45:00,38.1,16.4,30.25,NNW,337,6.3,6.9,41,0.00,,,0.00,WUHU21623XXSP,2013-04-03 16:45:00,
2013-04-03 12:50:00,38.1,16.4,30.25,NNW,337,4.7,6.9,41,0.00,,,0.00,WUHU21623XXSP,2013-04-03 16:50:00,
2013-04-03 12:55:00,38.1,16.4,30.25,WNW,292,4.5,11.2,41,0.00,,,0.00,WUHU21623XXSP,2013-04-03 16:55:00,
2013-04-03 13:00:00,38.5,16.8,30.25,NW,315,5.6,11.2,41,0.00,,,0.00,WUHU21623XXSP,2013-04-03 17:00:00,
2013-04-03 13:05:00,38.8,17.1,30.25,WNW,292,5.1,5.6,41,0.00,,,0.00,WUHU21623XXSP,2013-04-03 17:05:00,
2013-04-03 13:10:00,39.0,17.2,30.25,West,270,2.2,8.9,41,0.00,,,0.00,WUHU21623XXSP,2013-04-03 17:10:00,
2013-04-03 13:15:00,39.4,17.6,30.25,WNW,292,3.1,9.8,41,0.00,,,0.00,WUHU21623XXSP,2013-04-03 17:15:00,
2013-04-03 13:20:00,39.6,17.7,30.25,SSE,157,1.1,9.8,41,0.00,,,0.00,WUHU21623XXSP,2013-04-03 17:20:00,
2013-04-03 13:25:00,39.9,17.5,30.25,NW,315,7.2,8.1,40,0.00,,,0.00,WUHU21623XXSP,2013-04-03 17:25:00,
2013-04-03 13:30:00,39.9,17.5,30.25,NNW,337,8.1,8.1,40,0.00,,,0.00,WUHU21623XXSP,2013-04-03 17:30:00,
2013-04-03 13:36:00,39.9,17.5,30.24,NNW,337,4.7,8.1,40,0.00,,,0.00,WUHU21623XXSP,2013-04-03 17:36:00,
2013-04-03 13:41:00,39.9,17.5,30.24,WNW,292,3.8,8.5,40,0.00,,,0.00,WUHU21623XXSP,2013-04-03 17:41:00,
2013-04-03 13:46:00,40.1,17.7,30.25,NNW,337,3.6,8.5,40,0.00,,,0.00,WUHU21623XXSP,2013-04-03 17:46:00,
2013-04-03 13:51:00,39.9,16.9,30.25,WNW,292,5.8,5.8,39,0.00,,,0.00,WUHU21623XXSP,2013-04-03 17:51:00,
2013-04-03 13:56:00,39.9,17.5,30.25,North,0,11.2,11.2,40,0.00,,,0.00,WUHU21623XXSP,2013-04-03 17:56:00,
2013-04-03 14:00:00,39.9,17.5,30.25,NW,315,5.6,11.2,40,0.00,,,0.00,WUHU21623XXSP,2013-04-03 18:00:00,
2013-04-03 14:05:00,40.3,17.9,30.25,NW,315,7.2,11.2,40,0.00,,,0.00,WUHU21623XXSP,2013-04-03 18:05:00,
2013-04-03 14:11:00,39.9,17.5,30.25,NW,315,5.4,11.4,40,0.00,,,0.00,WUHU21623XXSP,2013-04-03 18:11:00,
2013-04-03 14:16:00,39.9,17.5,30.25,NW,315,8.1,11.4,40,0.00,,,0.00,WUHU21623XXSP,2013-04-03 18:16:00,
2013-04-03 14:21:00,39.9,17.5,30.25,North,0,7.4,8.1,40,0.00,,,0.00,WUHU21623XXSP,2013-04-03 18:21:00,
2013-04-03 14:26:00,39.7,17.9,30.26,NW,315,11.9,11.9,41,0.00,,,0.00,WUHU21623XXSP,2013-04-03 18:26:00,
2013-04-03 14:31:00,39.4,18.1,30.25,NNW,337,8.1,11.9,42,0.00,,,0.00,WUHU21623XXSP,2013-04-03 18:31:00,
2013-04-03 14:36:00,38.8,17.6,30.26,NW,315,13.0,13.0,42,0.00,,,0.00,WUHU21623XXSP,2013-04-03 18:36:00,
2013-04-03 14:41:00,38.8,18.6,30.27,NNW,337,5.4,13.0,44,0.00,,,0.00,WUHU21623XXSP,2013-04-03 18:41:00,
2013-04-03 14:47:00,39.0,19.9,30.27,NW,315,5.1,10.1,46,0.00,,,0.00,WUHU21623XXSP,2013-04-03 18:47:00,
2013-04-03 14:52:00,39.4,21.2,30.27,NNW,337,10.5,10.5,48,0.00,,,0.00,WUHU21623XXSP,2013-04-03 18:52:00,
2013-04-03 14:57:00,39.0,21.4,30.28,North,0,7.8,10.5,49,0.00,,,0.00,WUHU21623XXSP,2013-04-03 18:57:00,
2013-04-03 15:02:00,38.3,21.7,30.28,WNW,292,10.1,14.5,51,0.00,,,0.00,WUHU21623XXSP,2013-04-03 19:02:00,
2013-04-03 15:07:00,37.9,21.6,30.28,NW,315,5.1,14.5,52,0.00,,,0.00,WUHU21623XXSP,2013-04-03 19:07:00,
2013-04-03 15:12:00,38.1,22.0,30.27,NNE,22,6.5,11.2,52,0.00,,,0.00,WUHU21623XXSP,2013-04-03 19:12:00,
2013-04-03 15:17:00,38.3,22.2,30.27,WNW,292,1.3,11.2,52,0.00,,,0.00,WUHU21623XXSP,2013-04-03 19:17:00,
2013-04-03 15:22:00,38.1,22.0,30.28,NW,315,4.5,6.3,52,0.00,,,0.00,WUHU21623XXSP,2013-04-03 19:22:00,
2013-04-03 15:27:00,38.7,22.0,30.27,NW,315,10.7,10.7,51,0.00,,,0.00,WUHU21623XXSP,2013-04-03 19:27:00,
2013-04-03 15:32:00,39.0,21.4,30.27,North,0,13.2,13.2,49,0.00,,,0.00,WUHU21623XXSP,2013-04-03 19:32:00,
2013-04-03 15:37:00,38.8,20.7,30.27,NNW,337,13.0,13.2,48,0.00,,,0.00,WUHU21623XXSP,2013-04-03 19:37:00,
2013-04-03 15:42:00,38.7,22.5,30.27,South,180,2.2,13.0,52,0.00,,,0.00,WUHU21623XXSP,2013-04-03 19:42:00,
2013-04-03 15:47:00,38.8,22.6,30.27,WNW,292,5.4,5.4,52,0.00,,,0.00,WUHU21623XXSP,2013-04-03 19:47:00,
2013-04-03 15:52:00,38.8,21.3,30.27,NNW,337,8.3,8.3,49,0.00,,,0.00,WUHU21623XXSP,2013-04-03 19:52:00,
2013-04-03 15:57:00,38.1,20.4,30.27,NW,315,10.7,10.7,48,0.00,,,0.00,WUHU21623XXSP,2013-04-03 19:57:00,
2013-04-03 16:02:00,37.9,20.4,30.28,WNW,292,4.5,10.7,49,0.00,,,0.00,WUHU21623XXSP,2013-04-03 20:02:00,
2013-04-03 16:07:00,38.3,20.8,30.27,NW,315,9.2,9.2,49,0.00,,,0.00,WUHU21623XXSP,2013-04-03 20:07:00,
2013-04-03 16:13:00,38.3,19.2,30.27,WNW,292,8.3,9.2,46,0.00,,,0.00,WUHU21623XXSP,2013-04-03 20:13:00,
2013-04-03 16:18:00,38.3,18.7,30.28,WNW,292,12.5,12.5,45,0.00,,,0.00,WUHU21623XXSP,2013-04-03 20:18:00,
2013-04-03 16:23:00,38.3,18.2,30.27,NW,315,9.6,12.5,44,0.00,,,0.00,WUHU21623XXSP,2013-04-03 20:23:00,
2013-04-03 16:28:00,38.3,17.6,30.27,WNW,292,11.2,12.5,43,0.00,,,0.00,WUHU21623XXSP,2013-04-03 20:28:00,
2013-04-03 16:33:00,38.3,18.2,30.28,NW,315,4.9,11.2,44,0.00,,,0.00,WUHU21623XXSP,2013-04-03 20:33:00,
2013-04-03 16:38:00,38.5,16.8,30.28,NW,315,13.6,13.6,41,0.00,,,0.00,WUHU21623XXSP,2013-04-03 20:38:00,
2013-04-03 16:43:00,38.5,16.2,30.28,NNW,337,7.6,13.6,40,0.00,,,0.00,WUHU21623XXSP,2013-04-03 20:43:00,
2013-04-03 16:48:00,38.5,16.2,30.29,NW,315,4.9,8.1,40,0.00,,,0.00,WUHU21623XXSP,2013-04-03 20:48:00,
2013-04-03 16:53:00,38.5,16.2,30.29,NW,315,13.9,13.9,40,0.00,,,0.00,WUHU21623XXSP,2013-04-03 20:53:00,
2013-04-03 16:58:00,38.5,16.2,30.29,NW,315,9.2,15.4,40,0.00,,,0.00,WUHU21623XXSP,2013-04-03 20:58:00,
2013-04-03 17:03:00,38.3,16.1,30.30,NNW,337,9.6,15.4,40,0.00,,,0.00,WUHU21623XXSP,2013-04-03 21:03:00,
2013-04-03 17:08:00,38.3,16.1,30.30,NW,315,2.9,11.2,39,0.00,,,0.00,WUHU21623XXSP,2013-04-03 21:08:00,
2013-04-03 17:13:00,38.1,14.6,30.30,NNW,337,10.3,10.3,38,0.00,,,0.00,WUHU21623XXSP,2013-04-03 21:13:00,
2013-04-03 17:18:00,37.8,14.9,30.30,NNW,337,9.6,10.3,39,0.00,,,0.00,WUHU21623XXSP,2013-04-03 21:18:00,
2013-04-03 17:23:00,37.6,14.9,30.31,NNW,337,9.6,9.6,38,0.00,,,0.00,WUHU21623XXSP,2013-04-03 21:23:00,
2013-04-03 17:28:00,37.4,14.8,30.30,NNW,337,8.1,9.6,39,0.00,,,0.00,WUHU21623XXSP,2013-04-03 21:28:00,
2013-04-03 17:33:00,37.4,14.8,30.32,NW,315,7.4,8.1,39,0.00,,,0.00,WUHU21623XXSP,2013-04-03 21:33:00,
2013-04-03 17:38:00,37.4,14.6,30.31,NW,315,7.4,7.4,39,0.00,,,0.00,WUHU21623XXSP,2013-04-03 21:38:00,
2013-04-03 17:43:00,37.4,14.8,30.32,NW,315,6.0,7.4,39,0.00,,,0.00,WUHU21623XXSP,2013-04-03 21:43:00,
2013-04-03 17:48:00,37.2,14.4,30.32,NNE,22,9.4,9.4,39,0.00,,,0.00,WUHU21623XXSP,2013-04-03 21:48:00,
2013-04-03 17:53:00,37.2,14.4,30.32,North,0,6.7,9.4,39,0.00,,,0.00,WUHU21623XXSP,2013-04-03 21:53:00,
2013-04-03 17:58:00,37.2,14.3,30.33,NNW,337,5.8,9.4,38,0.00,,,0.00,WUHU21623XXSP,2013-04-03 21:58:00,
2013-04-03 18:03:00,37.0,13.6,30.33,NW,315,4.7,6.7,38,0.00,,,0.00,WUHU21623XXSP,2013-04-03 22:03:00,
2013-04-03 18:08:00,36.7,13.5,30.33,NNW,337,3.8,4.7,38,0.00,,,0.00,WUHU21623XXSP,2013-04-03 22:08:00,
2013-04-03 18:13:00,36.9,13.5,30.33,NW,315,7.6,7.6,38,0.00,,,0.00,WUHU21623XXSP,2013-04-03 22:13:00,
2013-04-03 18:18:00,36.7,13.3,30.33,WNW,292,3.6,7.6,38,0.00,,,0.00,WUHU21623XXSP,2013-04-03 22:18:00,
2013-04-03 18:23:00,36.5,13.2,30.33,NNW,337,7.6,7.6,38,0.00,,,0.00,WUHU21623XXSP,2013-04-03 22:23:00,
2013-04-03 18:28:00,36.3,13.0,30.34,NW,315,6.5,7.6,38,0.00,,,0.00,WUHU21623XXSP,2013-04-03 22:28:00,
2013-04-03 18:33:00,36.3,13.0,30.34,NNW,337,7.2,7.6,38,0.00,,,0.00,WUHU21623XXSP,2013-04-03 22:33:00,
2013-04-03 18:38:00,36.3,13.0,30.34,NW,315,3.6,7.2,38,0.00,,,0.00,WUHU21623XXSP,2013-04-03 22:38:00,
2013-04-03 18:43:00,36.1,13.5,30.35,NW,315,4.9,4.9,39,0.00,,,0.00,WUHU21623XXSP,2013-04-03 22:43:00,
2013-04-03 18:48:00,36.1,13.5,30.35,NW,315,4.3,5.4,39,0.00,,,0.00,WUHU21623XXSP,2013-04-03 22:48:00,
2013-04-03 18:53:00,36.0,13.3,30.35,NW,315,6.0,6.0,39,0.00,,,0.00,WUHU21623XXSP,2013-04-03 22:53:00,
2013-04-03 18:58:00,35.8,13.2,30.35,NW,315,7.6,7.6,39,0.00,,,0.00,WUHU21623XXSP,2013-04-03 22:58:00,
2013-04-03 19:03:00,35.8,13.2,30.35,NW,315,7.6,7.6,39,0.00,,,0.00,WUHU21623XXSP,2013-04-03 23:03:00,
2013-04-03 19:08:00,35.8,13.2,30.35,NNW,337,6.5,7.6,39,0.00,,,0.00,WUHU21623XXSP,2013-04-03 23:08:00,
2013-04-03 19:13:00,35.8,13.2,30.35,NW,315,3.1,6.5,39,0.00,,,0.00,WUHU21623XXSP,2013-04-03 23:13:00,
2013-04-03 19:18:00,35.4,13.0,30.35,North,0,3.6,3.6,40,0.00,,,0.00,WUHU21623XXSP,2013-04-03 23:18:00,
2013-04-03 19:23:00,35.2,13.3,30.35,NW,315,2.9,4.9,40,0.00,,,0.00,WUHU21623XXSP,2013-04-03 23:23:00,
2013-04-03 19:28:00,34.7,12.8,30.35,NNW,337,3.1,4.9,40,0.00,,,0.00,WUHU21623XXSP,2013-04-03 23:28:00,
2013-04-03 19:33:00,34.3,12.5,30.35,NW,315,5.8,5.8,40,0.00,,,0.00,WUHU21623XXSP,2013-04-03 23:33:00,
2013-04-03 19:37:00,34.0,12.7,30.35,NNW,337,0.0,5.8,41,0.00,,,0.00,WUHU21623XXSP,2013-04-03 23:37:00,
2013-04-03 19:42:00,34.0,12.7,30.35,NW,315,2.0,2.2,41,0.00,,,0.00,WUHU21623XXSP,2013-04-03 23:42:00,
2013-04-03 19:47:00,33.6,12.4,30.35,NW,315,2.5,2.5,42,0.00,,,0.00,WUHU21623XXSP,2013-04-03 23:47:00,
2013-04-03 19:53:00,33.3,12.7,30.35,NW,315,5.4,5.4,42,0.00,,,0.00,WUHU21623XXSP,2013-04-03 23:53:00,
2013-04-03 19:58:00,33.1,11.9,30.35,NW,315,2.7,5.4,41,0.00,,,0.00,WUHU21623XXSP,2013-04-03 23:58:00,
2013-04-03 20:03:00,32.7,12.1,30.35,NNW,337,1.6,3.1,42,0.00,,,0.00,WUHU21623XXSP,2013-04-04 00:03:00,
2013-04-03 20:08:00,32.5,11.9,30.35,NNW,337,2.5,3.1,42,0.00,,,0.00,WUHU21623XXSP,2013-04-04 00:08:00,
2013-04-03 20:13:00,32.4,11.7,30.35,NNW,337,1.3,2.9,42,0.00,,,0.00,WUHU21623XXSP,2013-04-04 00:13:00,
2013-04-03 20:18:00,32.2,11.6,30.35,NW,315,0.0,2.0,42,0.00,,,0.00,WUHU21623XXSP,2013-04-04 00:18:00,
2013-04-03 20:23:00,31.8,11.8,30.35,NNW,337,0.0,2.0,43,0.00,,,0.00,WUHU21623XXSP,2013-04-04 00:23:00,
2013-04-03 20:28:00,31.6,11.6,30.35,NNW,337,2.2,2.2,43,0.00,,,0.00,WUHU21623XXSP,2013-04-04 00:28:00,
2013-04-03 20:33:00,31.6,11.6,30.35,NNW,337,0.0,2.2,43,0.00,,,0.00,WUHU21623XXSP,2013-04-04 00:33:00,
2013-04-03 20:38:00,31.3,11.8,30.36,NNW,337,1.8,1.8,44,0.00,,,0.00,WUHU21623XXSP,2013-04-04 00:38:00,
2013-04-03 20:43:00,30.9,11.4,30.36,NW,315,0.0,1.8,44,0.00,,,0.00,WUHU21623XXSP,2013-04-04 00:43:00,
2013-04-03 20:48:00,30.7,11.8,30.35,NW,315,0.0,0.0,45,0.00,,,0.00,WUHU21623XXSP,2013-04-04 00:48:00,
2013-04-03 20:53:00,30.4,11.5,30.35,SSE,157,0.0,1.8,45,0.00,,,0.00,WUHU21623XXSP,2013-04-04 00:53:00,
2013-04-03 20:58:00,30.4,11.5,30.36,NW,315,0.0,1.8,45,0.00,,,0.00,WUHU21623XXSP,2013-04-04 00:58:00,
2013-04-03 21:03:00,30.2,11.3,30.36,NW,315,0.0,0.0,45,0.00,,,0.00,WUHU21623XXSP,2013-04-04 01:03:00,
2013-04-03 21:08:00,30.0,11.6,30.36,NNE,22,0.0,0.0,46,0.00,,,0.00,WUHU21623XXSP,2013-04-04 01:08:00,
2013-04-03 21:13:00,30.0,12.1,30.36,NW,315,0.0,0.0,47,0.00,,,0.00,WUHU21623XXSP,2013-04-04 01:13:00,
2013-04-03 21:18:00,29.8,12.0,30.35,ENE,67,1.6,1.6,47,0.00,,,0.00,WUHU21623XXSP,2013-04-04 01:18:00,
2013-04-03 21:23:00,29.7,11.8,30.36,SE,135,0.0,1.6,47,0.00,,,0.00,WUHU21623XXSP,2013-04-04 01:23:00,
2013-04-03 21:28:00,29.5,12.2,30.35,East,90,0.0,1.1,48,0.00,,,0.00,WUHU21623XXSP,2013-04-04 01:28:00,
2013-04-03 21:33:00,29.3,12.2,30.35,ENE,67,2.2,2.2,48,0.00,,,0.00,WUHU21623XXSP,2013-04-04 01:33:00,
2013-04-03 21:38:00,29.3,12.0,30.35,NNE,22,0.0,2.2,48,0.00,,,0.00,WUHU21623XXSP,2013-04-04 01:38:00,
2013-04-03 21:43:00,29.3,12.0,30.34,NE,45,0.0,0.0,48,0.00,,,0.00,WUHU21623XXSP,2013-04-04 01:43:00,
2013-04-03 21:48:00,29.3,12.0,30.34,NW,315,0.0,0.0,48,0.00,,,0.00,WUHU21623XXSP,2013-04-04 01:48:00,
2013-04-03 21:53:00,29.3,12.0,30.33,ENE,67,0.0,0.0,48,0.00,,,0.00,WUHU21623XXSP,2013-04-04 01:53:00,
2013-04-03 21:58:00,29.3,12.0,30.34,ESE,112,0.0,0.0,48,0.00,,,0.00,WUHU21623XXSP,2013-04-04 01:58:00,
2013-04-03 22:03:00,29.3,12.0,30.33,ENE,67,0.0,1.6,48,0.00,,,0.00,WUHU21623XXSP,2013-04-04 02:03:00,
2013-04-03 22:08:00,29.1,12.3,30.33,ENE,67,1.6,1.6,49,0.00,,,0.00,WUHU21623XXSP,2013-04-04 02:08:00,
2013-04-03 22:13:00,29.1,12.3,30.33,ENE,67,0.0,1.6,49,0.00,,,0.00,WUHU21623XXSP,2013-04-04 02:13:00,
2013-04-03 22:18:00,29.1,12.3,30.32,NE,45,0.0,1.6,49,0.00,,,0.00,WUHU21623XXSP,2013-04-04 02:18:00,
2013-04-03 22:23:00,28.9,12.2,30.33,NE,45,0.0,0.0,49,0.00,,,0.00,WUHU21623XXSP,2013-04-04 02:23:00,
2013-04-03 22:28:00,28.9,12.2,30.33,NE,45,0.0,0.0,49,0.00,,,0.00,WUHU21623XXSP,2013-04-04 02:28:00,
2013-04-03 22:33:00,28.2,12.0,30.32,NNE,22,0.0,0.0,50,0.00,,,0.00,WUHU21623XXSP,2013-04-04 02:33:00,
2013-04-03 22:38:00,28.0,12.3,30.33,NW,315,0.0,0.0,51,0.00,,,0.00,WUHU21623XXSP,2013-04-04 02:38:00,
2013-04-03 22:43:00,27.9,12.1,30.33,NW,315,0.0,0.0,51,0.00,,,0.00,WUHU21623XXSP,2013-04-04 02:43:00,
2013-04-03 22:48:00,28.0,12.3,30.33,West,270,0.0,0.0,51,0.00,,,0.00,WUHU21623XXSP,2013-04-04 02:48:00,
2013-04-03 22:53:00,27.7,11.9,30.32,North,0,0.0,0.0,51,0.00,,,0.00,WUHU21623XXSP,2013-04-04 02:53:00,
2013-04-03 22:58:00,27.7,11.9,30.32,NW,315,0.0,0.0,52,0.00,,,0.00,WUHU21623XXSP,2013-04-04 02:58:00,
2013-04-03 23:03:00,27.5,12.1,30.32,NE,45,0.0,1.3,52,0.00,,,0.00,WUHU21623XXSP,2013-04-04 03:03:00,
2013-04-03 23:08:00,27.5,12.1,30.32,SE,135,0.0,1.3,52,0.00,,,0.00,WUHU21623XXSP,2013-04-04 03:08:00,
2013-04-03 23:13:00,27.5,12.1,30.32,SE,135,0.0,0.0,52,0.00,,,0.00,WUHU21623XXSP,2013-04-04 03:13:00,
2013-04-03 23:18:00,27.5,12.1,30.32,WSW,247,0.0,0.9,52,0.00,,,0.00,WUHU21623XXSP,2013-04-04 03:18:00,
2013-04-03 23:23:00,27.3,12.5,30.33,WSW,247,0.0,0.9,53,0.00,,,0.00,WUHU21623XXSP,2013-04-04 03:23:00,
2013-04-03 23:28:00,27.1,12.2,30.32,NW,315,0.9,1.3,53,0.00,,,0.00,WUHU21623XXSP,2013-04-04 03:28:00,
2013-04-03 23:33:00,27.0,12.2,30.33,NW,315,0.0,1.3,53,0.00,,,0.00,WUHU21623XXSP,2013-04-04 03:33:00,
2013-04-03 23:38:00,26.4,11.9,30.33,NW,315,0.0,0.0,54,0.00,,,0.00,WUHU21623XXSP,2013-04-04 03:38:00,
2013-04-03 23:43:00,26.2,12.1,30.33,NW,315,0.0,0.0,55,0.00,,,0.00,WUHU21623XXSP,2013-04-04 03:43:00,
2013-04-03 23:48:00,25.9,11.8,30.32,NW,315,0.0,0.0,55,0.00,,,0.00,WUHU21623XXSP,2013-04-04 03:48:00,
2013-04-03 23:53:00,25.5,11.9,30.33,SW,225,0.0,0.0,56,0.00,,,0.00,WUHU21623XXSP,2013-04-04 03:53:00,
2013-04-03 23:58:00,25.3,11.8,30.33,SW,225,0.0,0.0,56,0.00,,,0.00,WUHU21623XXSP,2013-04-04 03:58:00,